TimeMDT,TemperatureF,Dew PointF,Humidity,Sea Level PressureIn,VisibilityMPH,Wind Direction,Wind SpeedMPH,Gust SpeedMPH,PrecipitationIn,Events,Conditions,WindDirDegrees,DateUTC
12:53 AM,39.0,33.1,79,29.92,10.0,Calm,Calm,-,N/A,,Clear,0,2012-11-01 06:53:00
1:53 AM,36.0,32.0,86,29.91,10.0,North,3.5,-,N/A,,Clear,10,2012-11-01 07:53:00
2:53 AM,37.9,30.9,76,29.90,10.0,NNE,6.9,-,N/A,,Clear,20,2012-11-01 08:53:00
3:53 AM,37.9,30.9,76,29.89,10.0,East,3.5,-,N/A,,Clear,80,2012-11-01 09:53:00
4:53 AM,36.0,30.9,82,29.88,10.0,ENE,4.6,-,N/A,,Clear,60,2012-11-01 10:53:00
7:53 AM,39.9,32.0,73,29.92,10.0,SSW,4.6,-,N/A,,Clear,200,2012-11-01 13:53:00
8:53 AM,46.0,30.9,56,29.93,10.0,SSW,8.1,-,N/A,,Clear,210,2012-11-01 14:53:00
9:53 AM,50.0,33.1,52,29.94,10.0,SW,11.5,-,N/A,,Clear,220,2012-11-01 15:53:00
12:53 PM,55.0,32.0,42,29.95,10.0,SSW,17.3,25.3,N/A,,Mostly Cloudy,210,2012-11-01 18:53:00
1:53 PM,54.0,33.1,45,29.96,10.0,SSW,17.3,24.2,N/A,,Mostly Cloudy,210,2012-11-01 19:53:00
2:53 PM,53.1,35.1,50,29.96,10.0,SSW,18.4,26.5,N/A,,Overcast,210,2012-11-01 20:53:00
3:53 PM,52.0,34.0,50,29.97,10.0,SSW,16.1,24.2,N/A,,Overcast,200,2012-11-01 21:53:00
4:53 PM,51.1,35.1,54,29.97,10.0,SSW,13.8,24.2,N/A,,Partly Cloudy,200,2012-11-01 22:53:00
5:53 PM,50.0,35.1,57,29.99,10.0,SSW,16.1,-,N/A,,Clear,200,2012-11-01 23:53:00
6:53 PM,48.0,35.1,61,29.99,10.0,South,12.7,-,N/A,,Clear,190,2012-11-02 00:53:00
7:53 PM,45.0,35.1,68,29.99,10.0,South,10.4,-,N/A,,Clear,180,2012-11-02 01:53:00
8:53 PM,44.1,34.0,68,29.99,10.0,South,13.8,-,N/A,,Clear,180,2012-11-02 02:53:00
9:53 PM,44.1,34.0,68,29.99,10.0,SSW,8.1,-,N/A,,Clear,210,2012-11-02 03:53:00
10:53 PM,43.0,34.0,71,30.01,10.0,SSW,5.8,-,N/A,,Clear,210,2012-11-02 04:53:00
11:53 PM,41.0,33.1,73,30.01,10.0,SSW,8.1,-,N/A,,Clear,210,2012-11-02 05:53:00